星链-32738 (STARLINK-32738)

导读

STARLINK-32738是美国SpaceX公司星链(Starlink)星座的组网卫星,于2025年2月18日发射入轨,作为星链第二代低轨卫星群的组成部分,运行于近地轨道。卫星依托星链全球地面站网络,为全球偏远地区及网络基础设施薄弱区域提供低延迟、高速率的宽带互联网接入服务,进一步扩充了星链星座的全球覆盖范围与服务容量。

基本信息
目录编号:
63046
目录名称:
STARLINK-32738
国际标识:
2025-034T
轨道中心:
EARTH
卫星名称:
星链-32738
卫星全名:
星链-32738 (STARLINK-32738)
卫星状态:
在轨 (已飞行481 天)
发射日期:
2025-02-18 UTC
国别 :
美国 (US)
星等 :
--
轨道信息
数据来源 国际轨道数据
星历时间: 2026-06-13T15:32:07+0800
1天前
查看轨道信息
半长轴: 6840.862km
偏心率: 0.0000497
轨道倾角: 53.158°
近地点辐角 63.979°
升交点赤经 173.509°
平近点角 296.126°
近地点: 462.385km
远地点: 463.065km
周期: 93.848分钟
每日圈数: 15.34393
详细信息
固有亮度:
5
最大亮度:
2.5
卫星平台:
Starlink V1.0
覆盖范围:
全球
运营商:
太空探索技术公司
运营商所在国:
美国
制造商(研发单位):
太空探索技术公司
制造商所在国:
美国
使用方式:
暂无
卫星简介
Starlink 计划是 SpaceX 推出的全球卫星互联网项目,通过发射低轨道卫星,为全球尤其是偏远地区提供高速、低延迟的互联网服务。自 2019 年起,Starlink 已部署数千颗卫星,旨在缩小全球数字鸿沟,推动互联网普及。该项目还为军事、航空等行业提供通信支持,带来广泛经济效益。
2D轨道图
3D轨道图
轨道高度分析图
轨道倾角分析图
轨道综合分析图
查看轨道综合分析图